Miscellaneous Local Product
Issued by NWS Hastings, NE

Home | Current Version | Previous Version | Text Only | Print | Product List | Glossary Off
Versions: 1 2 3 4 5 6 7 8 9 10 11 12 13 14 15 16 17 18 19 20 21 22 23 24 25 26 27 28 29 30 31 32 33 34 35 36 37 38 39 40 41 42 43 44 45 46 47 48 49 50

000
AXUS43 KGID 201010
MISGRI

GID CWA HOURLY WEATHER ROUNDUP
NATIONAL WEATHER SERVICE HASTINGS NE
500 AM CDT SAT SEP 20 2014

NOTE: "FAIR" INDICATES FEW OR NO CLOUDS BELOW 12,000 FEET WITH NO
SIGNIFICANT WEATHER AND/OR OBSTRUCTIONS TO VISIBILITY.

...SOUTH CENTRAL NEBRASKA...

CITY           SKY/WX    TMP DP  RH WIND       PRES   REMARKS
GRAND ISLAND   MOCLDY    69  62  78 CALM      29.89R
HASTINGS       MOCLDY    70  58  65 SW10      29.87S
KEARNEY        MOCLDY    70  61  73 CALM      29.88R
ORD            CLEAR     62  58  86 NW7       29.88R
YORK           CLOUDY    70  63  78 N7        29.90R
AURORA         MOCLDY    69  61  74 NW7       29.89R
LEXINGTON      PTCLDY    66  61  83 NW5       29.90R
HOLDREGE       CLOUDY    67  60  78 SW5       29.88R
HEBRON         PTCLDY    69  61  75 SW8       29.88R

...NEBRASKA PANHANDLE...

CITY           SKY/WX    TMP DP  RH WIND       PRES   REMARKS
CHADRON        PTCLDY    52  49  89 SW5       30.04F
ALLIANCE       CLEAR     54  49  83 N6        30.06R
SCOTTSBLUFF    CLEAR     57  48  72 W6        30.08R
SIDNEY         CLEAR     60  52  74 N12       30.06R

...WESTERN AND NORTH CENTRAL NEBRASKA...

CITY           SKY/WX    TMP DP  RH WIND       PRES   REMARKS
VALENTINE      PTCLDY    54  51  90 W6        29.97R
AINSWORTH      CLEAR     58  53  84 NW8       29.97R
ONEILL         CLEAR     62  58  87 NW7       29.92R
BROKEN BOW     CLEAR     66  57  72 N9        29.92R
IMPERIAL       CLEAR     61  55  81 N10       29.94R
NORTH PLATTE   CLEAR     63  57  81 N14       29.93R
MCCOOK         MOCLDY    68  62  81 SW7       29.89S

...EASTERN NEBRASKA...

CITY           SKY/WX    TMP DP  RH WIND       PRES   REMARKS
NORFOLK        MOCLDY    67  63  87 W6        29.86R
SO SIOUX CITY  MOCLDY    63  62  97 N6        29.83R
TEKAMAH        CLOUDY    69  67  93 SE7       29.83R
ALBION         MOCLDY    65  63  91 CALM      29.88R
OMAHA EPPLEY   TSTM      72  68  87 S6        29.86R
OFFUTT AFB     PTCLDY    70  70 100 S7        29.87R THUNDER
MILLARD        TSTM      72  68  88 E7        29.86F
LINCOLN        CLOUDY    74  63  68 NW13      29.91R THUNDER
NEBRASKA CITY    N/A     71  63  76 SW10      29.87R
BEATRICE       PTCLDY    70  65  82 W7        29.88R
FALLS CITY     PTCLDY    69  67  93 S12       29.86F

...NORTHERN KANSAS...

CITY           SKY/WX    TMP DP  RH WIND       PRES   REMARKS
GOODLAND       PTCLDY    65  61  87 SW10      29.98R
HILL CITY      PTCLDY    67  59  75 SW8       29.91F
NORTON         SUNNY     68  57  68 S10       29.89R
SMITH CENTER   CLEAR     64  59  82 S8        29.90R
BELOIT         CLEAR     70  63  78 S8        29.88F
HAYS           CLEAR     66  57  72 SW13      29.93F
RUSSELL        CLEAR     69  61  75 S15       29.91F
CONCORDIA      CLEAR     69  64  84 S15       29.89F
SALINA         CLEAR     70  65  84 S10       29.92F
TOPEKA         CLEAR     70  68  93 SW7       29.92F FOG



USA.gov is the U.S. government's official web portal to all federal, state and local government web resources and services.